Regional Weather Roundup
Issued by NWS

Home | Current Version | Previous Version | Graphics & Text | Print | Product List | Glossary On
Versions: 1 2 3 4 5 6 7 8 9 10 11 12 13 14 15 16 17 18 19 20 21 22 23 24 25 26 27 28 29 30 31 32 33 34 35 36 37 38 39 40 41 42 43 44 45 46 47 48 49 50
470
ASUS43 KMKX 220513
RWRWI

WISCONSIN REGIONAL WEATHER ROUNDUP
NATIONAL WEATHER SERVICE MILWAUKEE/SULLIVAN WI
1200 AM CDT FRI MAY 22 2015

NOTE: "FAIR" INDICATES FEW OR NO CLOUDS BELOW 12,000 FEET WITH NO
SIGNIFICANT WEATHER AND/OR OBSTRUCTIONS TO VISIBILITY.

WIZ001-002-006>008-014>016-023>028-220600-
NORTHWEST WISCONSIN

CITY           SKY/WX    TMP DP  RH WIND       PRES   REMARKS
SUPERIOR ARPT  CLEAR     44  35  71 CALM      30.09R
ASHLAND          N/A     38  37  97 CALM      30.09R
HAYWARD        CLEAR     43  35  73 CALM      30.08R
SIREN          CLEAR     43  35  73 NW3       30.09R
CUMBERLAND     CLEAR     48  37  66 N6        30.08R
RICE LAKE      CLEAR     47  41  78 CALM      30.09R
CHETEK         CLEAR     48  41  76 CALM      30.07R
LADYSMITH      CLEAR     44  38  78 N3        30.08R
EAU CLAIRE     CLEAR     47  40  76 CALM      30.06R
MENOMONIE      CLEAR     55  38  52 W6        30.07R
NEW RICHMOND   CLEAR     53  35  50 NW6       30.09S
OSCEOLA        CLEAR     46  40  78 CALM      30.11S
$$

WIZ003>005-009-010-017-018-220600-
NORTH CENTRAL WISCONSIN

CITY           SKY/WX    TMP DP  RH WIND       PRES   REMARKS
MANITOWISH WTR CLEAR     37  34  90 CALM      30.06R
ARBOR VITAE    CLEAR     42  34  74 CALM      30.06S
WOODRUFF       CLEAR     42  34  74 CALM      30.06S
RHINELANDER    CLEAR     38  31  76 CALM      30.07R
EAGLE RIVER    CLEAR     38  31  77 CALM      30.06R
LAND O LAKES   CLEAR     38  31  78 NE3       30.08R
PHILLIPS       CLEAR     39  36  86 CALM      30.06S
TOMAHAWK       CLEAR     35  31  86 CALM      30.07R
MEDFORD        CLEAR     39  35  84 CALM      30.06R
MERRILL        CLEAR     38  33  81 CALM      30.07R
$$

WIZ029-030-035-036-043>047-220600-
CENTRAL WISCONSIN

CITY           SKY/WX    TMP DP  RH WIND       PRES   REMARKS
WAUSAU         CLEAR     46  35  65 E5        30.05R
MOSINEE        CLEAR     45  32  61 E5        30.06R
MARSHFIELD     CLEAR     52  29  41 NE3       30.05R
STEVENS POINT  CLEAR     48  36  64 CALM      30.06S
WAUPACA        CLEAR     49  34  56 E3        30.06S
WAUTOMA        NOT AVBL
WISC RAPIDS    CLEAR     50  34  54 E6        30.07R
CAMP DOUGLAS   NOT AVBL
$$

WIZ011>013-019>022-031-037>040-048>050-220600-
NORTHEAST WISCONSIN

CITY           SKY/WX    TMP DP  RH WIND       PRES   REMARKS
ANTIGO         CLEAR     45  32  61 SE5       30.06S
SHAWANO        CLEAR     43  38  82 CALM      30.06S
OCONTO         CLEAR     36  35  96 CALM      30.07R
STURGEON BAY   CLEAR     43  28  56 CALM      30.10R
GREEN BAY      CLEAR     43  35  73 E5        30.07R
MANITOWOC      NOT AVBL
APPLETON       CLEAR     46  30  53 E5        30.06S
CLINTONVILLE   CLEAR     45  37  76 CALM      30.06S
OSHKOSH        CLEAR     51  30  44 E8        30.06R
$$

WIZ032>034-041-042-053>061-220600-
SOUTHWEST WISCONSIN

CITY           SKY/WX    TMP DP  RH WIND       PRES   REMARKS
LA CROSSE      CLEAR     52  45  77 N3        30.05R
SPARTA         CLEAR     45  40  82 CALM      30.06S
VIROQUA        CLEAR     54  39  56 N3        30.05S
BOSCOBEL       CLEAR     48  40  73 CALM      30.05R
PRAIRIE DU CHI CLEAR     50  40  68 CALM      30.05R
PLATTEVILLE    CLEAR     57  35  43 W5        30.04S
$$

WIZ056-057-062-063-064-067-068-220600-
SOUTH CENTRAL WISCONSIN

CITY           SKY/WX    TMP DP  RH WIND       PRES   REMARKS
REEDSBURG      PTCLDY    53  40  61 CALM      30.04S
BARABOO/DELLS  CLEAR     56  33  41 NE6       30.04R
LONE ROCK      NOT AVBL
MINERAL POINT  CLEAR     57  34  41 NW3       30.04S
MADISON        CLEAR     56  38  50 N9        30.03R
MIDDLETON      CLEAR     58  37  46 N7        30.03R
WATERTOWN      CLEAR     53  44  71 NE20      30.03R
MONROE         CLEAR     59  41  51 W12       30.01F
JANESVILLE     CLEAR     57  41  54 W3        30.00S
$$

WIZ051-052-058>065-066-070>072-220600-
SOUTHEAST WISCONSIN

CITY           SKY/WX    TMP DP  RH WIND       PRES   REMARKS
MILWAUKEE      PTCLDY    48  37  65 N13       30.05R
WAUKESHA       PTCLDY    48  37  66 NE9       30.05R
MILWAUKEE/TIMM PTCLDY    48  34  57 NE8       30.06R
RACINE         CLOUDY    50  43  77 N16       30.05F
BURLINGTON     PTCLDY    58  40  51 CALM      30.00F
KENOSHA        CLOUDY    53  50  89 CALM      30.02S
FOND DU LAC    CLEAR     48  30  49 E3        30.07R
SHEBOYGAN      CLEAR     44  31  60 N5        30.07R
WEST BEND      CLOUDY    50  32  50 NE7       30.06R
JUNEAU         MOCLDY    50  34  53 NE9       30.06R
$$

LSZ147-162-220600-
LAKE SUPERIOR

STATION/POSITION TIME  TEMP    WIND        PRES    WAVE
                       AIR SEA DIR/SP/G            HT/PER
                 (UTC) (F)     (DEG/KT/KT) (MB)    (FT/S)
W MID LAKE BUOY  0350   40 36   90/  4/  6   N/A     0
DEVILS ISLAND    0400   55     350/ 10/ 11   N/A
PORT WING        0400   47     150/  2/  3   N/A
SAXON HARBOR     0400   43     200/  3/  4   N/A
$$

LMZ867-665-643>646-220600-
LAKE MICHIGAN

STATION/POSITION TIME  TEMP    WIND        PRES    WAVE
                       AIR SEA DIR/SP/G            HT/PER
                 (UTC) (F)     (DEG/KT/KT) (MB)    (FT/S)
CHAMBERS ISLAND  0400   49      20/  7/ 10   N/A
N MID LAKE BUOY  0350   43 36  310/  4/  6   N/A     1/ 4
NORTHPORT PIER   0340   49     360/  6/  9   N/A
SISTER BAY       0417   45        CALM       N/A
KEWAUNEE LAKESHO 0400          350/  1/  3   N/A
SHEBOYGAN LAKESH 0400           10/ 11/ 13   N/A
PORT WASHINGTON  0400   51      20/  7/ 12   N/A
ATWATER BUOY     0400   47 44  340/ 12/ 14   N/A
MILWAUKEE LAKESH 0400   51     330/  7/ 10   N/A
S MID LAKE BUOY  0350   47 38  270/ 10/ 12   N/A     1/ 4
KENOSHA   LAKESH 0400   60     340/ 18/ 21   N/A
$$

TC  - TEMPERATURE IN CELSIUS
VSB - VISIBILITY IN STATUTE MILES
WCI - WIND CHILL INDEX
HX  - HEAT INDEX




USA.gov is the U.S. government's official web portal to all federal, state and local government web resources and services.